Murray, KY

3:07 PM CST on December 06, 2019 (GMT -0600)
Kyle-Oakley

Weather History for KCEY - October, 2019

Change the Weather History Date:

Monday, October 7, 2019

  Actual Average (KPAH) Record (KPAH)
Temperature  
Mean Temperature 59 °F -  
Max Temperature 68 °F 69 °F 92 °F (2007)
Min Temperature 50 °F 47 °F 29 °F (1952)
Degree Days  
Heating Degree Days 6    
Growing Degree Days 9 (Base 50)    
Moisture  
Dew Point 53 °F    
Average Humidity 86    
Maximum Humidity 100    
Minimum Humidity 49    
Precipitation  
Precipitation 0.12 in - - ()
Sea Level Pressure  
Sea Level Pressure 30.18 in    
Wind  
Wind Speed 10 mph (NNE)    
Max Wind Speed 16 mph    
Max Gust Speed 24 mph    
Visibility 10 miles    
Events      
Averages and records for this station are not official NWS values.
T = Trace of Precipitation, MM = Missing Value Source: NWS Daily Summary

Daily Weather History Graph

Daily Weather History Graph

Search for Another Location

Airport or City:

Astronomy

Oct. 07, 2019 Rise Set
Actual Time 6:53 AM CDT 6:28 PM CDT
Civil Twilight 6:27 AM CDT 6:54 PM CDT
Nautical Twilight 5:57 AM CDT 7:24 PM CDT
Astronomical Twilight 5:27 AM CDT 7:54 PM CDT
Moon 3:39 PM CDT (10/7) 12:57 AM CDT (10/7)
Length of Visible Light 12h 26m
Length of Day
11h 34m
Waxing Gibbous, 69% of the Moon is Illuminated
Oct 7
Waxing Gibbous
Oct 13
Full
Oct 21
Last Quarter
Oct 27
New
Nov 4
First Quarter

Hourly Weather History & Observations

Time (CDT) Temp. Dew Point Humidity Pressure Visibility Wind Dir Wind Speed Gust Speed Precip Events Conditions
12:15 AM 57.2 °F 57.2 °F 100% 30.15 in 10.0 mi NNW 10.4 mph - 0.01 in   Unknown
12:35 AM 57.2 °F 57.2 °F 100% 30.14 in 8.0 mi NE 10.4 mph - 0.01 in   Unknown
12:55 AM 57.2 °F 57.2 °F 100% 30.14 in 10.0 mi NNE 11.5 mph - 0.02 in   Unknown
1:15 AM 57.2 °F 57.2 °F 100% 30.13 in 10.0 mi NE 12.7 mph 18.4 mph N/A   Overcast
1:35 AM 55.4 °F 55.4 °F 100% 30.12 in 9.0 mi NNE 13.8 mph - 0.02 in   Overcast
1:55 AM 55.4 °F 55.4 °F 100% 30.11 in 10.0 mi NNE 11.5 mph 17.3 mph 0.03 in   Unknown
2:15 AM 55.4 °F 55.4 °F 100% 30.10 in 10.0 mi NE 11.5 mph 20.7 mph 0.01 in   Unknown
2:35 AM 55.4 °F 55.4 °F 100% 30.09 in 10.0 mi NNE 15.0 mph - 0.02 in   Overcast
3:15 AM 55.4 °F 55.4 °F 100% 30.12 in 10.0 mi North 9.2 mph - N/A   Overcast
3:55 AM 55.4 °F 55.4 °F 100% 30.13 in 10.0 mi NW 12.7 mph - N/A   Unknown
4:15 AM 53.6 °F 53.6 °F 100% 30.13 in 2.5 mi NNW 15.0 mph 20.7 mph 0.02 in   Unknown
4:35 AM 53.6 °F 53.6 °F 100% 30.13 in 2.5 mi North 13.8 mph 19.6 mph 0.02 in   Overcast
4:55 AM 53.6 °F 53.6 °F 100% 30.13 in 10.0 mi North 12.7 mph 21.9 mph 0.03 in   Unknown
5:15 AM 53.6 °F 53.6 °F 100% 30.14 in 10.0 mi North 11.5 mph 19.6 mph N/A   Overcast
5:35 AM 53.6 °F 53.6 °F 100% 30.15 in 10.0 mi NNE 10.4 mph - N/A   Unknown
5:55 AM 55.4 °F 55.4 °F 100% 30.16 in 10.0 mi North 8.1 mph - N/A   Unknown
6:15 AM 55.4 °F 55.4 °F 100% 30.17 in 4.0 mi North 8.1 mph - N/A   Unknown
6:35 AM 55.4 °F 55.4 °F 100% 30.18 in 4.0 mi NNE 10.4 mph 17.3 mph 0.01 in   Overcast
6:55 AM 53.6 °F 53.6 °F 100% 30.18 in 7.0 mi NE 15.0 mph 24.2 mph 0.01 in   Overcast
7:15 AM 53.6 °F 53.6 °F 100% 30.18 in 10.0 mi NE 9.2 mph - N/A   Overcast
7:35 AM 53.6 °F 53.6 °F 100% 30.19 in 9.0 mi North 6.9 mph - N/A   Mostly Cloudy
7:55 AM 53.6 °F 53.6 °F 100% 30.19 in 10.0 mi NNE 6.9 mph - 0.01 in   Overcast
8:35 AM 55.4 °F 55.4 °F 100% 30.21 in 10.0 mi North 8.1 mph - N/A   Partly Cloudy
9:15 AM 55.4 °F 55.4 °F 100% 30.22 in 10.0 mi NNE 5.8 mph - N/A   Overcast
9:55 AM 57.2 °F 57.2 °F 100% 30.22 in 10.0 mi NE 9.2 mph - N/A   Overcast
10:15 AM 59.0 °F 57.2 °F 94% 30.23 in 10.0 mi NE 8.1 mph - N/A   Mostly Cloudy
10:35 AM 59.0 °F 55.4 °F 88% 30.23 in 10.0 mi NE 9.2 mph - N/A   Mostly Cloudy
10:55 AM 59.0 °F 55.4 °F 88% 30.23 in 10.0 mi NE 10.4 mph - N/A   Mostly Cloudy
11:15 AM 59.0 °F 57.2 °F 94% 30.23 in 10.0 mi NE 6.9 mph - N/A   Mostly Cloudy
11:35 AM 60.8 °F 55.4 °F 82% 30.23 in 10.0 mi NE 8.1 mph - N/A   Partly Cloudy
11:55 AM 62.6 °F 55.4 °F 77% 30.22 in 10.0 mi NE 10.4 mph - N/A   Partly Cloudy
12:15 PM 62.6 °F 53.6 °F 72% 30.22 in 10.0 mi NNE 11.5 mph - N/A   Partly Cloudy
12:35 PM 62.6 °F 51.8 °F 68% 30.22 in 10.0 mi North 12.7 mph 17.3 mph N/A   Clear
12:55 PM 64.4 °F 50.0 °F 59% 30.21 in 10.0 mi NNE 11.5 mph - N/A   Clear
1:15 PM 64.4 °F 50.0 °F 59% 30.20 in 10.0 mi NNE 16.1 mph 20.7 mph N/A   Clear
1:35 PM 66.2 °F 48.2 °F 52% 30.20 in 10.0 mi NNE 13.8 mph 19.6 mph N/A   Clear
1:55 PM 66.2 °F 48.2 °F 52% 30.19 in 10.0 mi NNE 15.0 mph 19.6 mph N/A   Clear
2:15 PM 66.2 °F 50.0 °F 56% 30.18 in 10.0 mi North 15.0 mph 19.6 mph N/A   Partly Cloudy
2:35 PM 66.2 °F 48.2 °F 52% 30.18 in 10.0 mi North 12.7 mph 20.7 mph N/A   Clear
2:55 PM 66.2 °F 48.2 °F 52% 30.18 in 10.0 mi NNE 10.4 mph 16.1 mph N/A   Clear
3:35 PM 66.2 °F 48.2 °F 52% 30.17 in 10.0 mi NNE 13.8 mph 18.4 mph N/A   Clear
3:55 PM 68.0 °F 50.0 °F 52% 30.17 in 10.0 mi North 10.4 mph 17.3 mph N/A   Clear
4:15 PM 68.0 °F 48.2 °F 49% 30.17 in 10.0 mi North 11.5 mph 17.3 mph N/A   Clear
4:35 PM 68.0 °F 50.0 °F 52% 30.16 in 10.0 mi NE 10.4 mph - N/A   Clear
4:55 PM 68.0 °F 50.0 °F 52% 30.16 in 10.0 mi NE 6.9 mph - N/A   Clear
5:15 PM 66.2 °F 50.0 °F 56% 30.16 in 10.0 mi ENE 8.1 mph - N/A   Clear
5:35 PM 66.2 °F 50.0 °F 56% 30.16 in 10.0 mi ENE 8.1 mph - N/A   Clear
5:55 PM 66.2 °F 50.0 °F 56% 30.16 in 10.0 mi ENE 5.8 mph - N/A   Clear
6:15 PM 64.4 °F 50.0 °F 59% 30.16 in 10.0 mi NE 3.5 mph - N/A   Clear
6:35 PM 59.0 °F 53.6 °F 82% 30.16 in 10.0 mi Calm Calm - N/A   Clear
6:55 PM 57.2 °F 55.4 °F 94% 30.17 in 10.0 mi Calm Calm - N/A   Clear
7:15 PM 57.2 °F 55.4 °F 94% 30.17 in 10.0 mi Calm Calm - N/A   Clear
7:35 PM 57.2 °F 55.4 °F 94% 30.17 in 10.0 mi Calm Calm - N/A   Clear
7:55 PM 55.4 °F 55.4 °F 100% 30.18 in 10.0 mi Calm Calm - N/A   Clear
8:15 PM 55.4 °F 55.4 °F 100% 30.18 in 10.0 mi Calm Calm - N/A   Clear
8:35 PM 55.4 °F 55.4 °F 100% 30.18 in 10.0 mi NNE 3.5 mph - N/A   Clear
8:55 PM 55.4 °F 55.4 °F 100% 30.19 in 10.0 mi Calm Calm - N/A   Clear
9:15 PM 53.6 °F 53.6 °F 100% 30.19 in 10.0 mi Calm Calm - N/A   Clear
9:35 PM 53.6 °F 53.6 °F 100% 30.20 in 10.0 mi Calm Calm - N/A   Unknown
9:55 PM 53.6 °F 53.6 °F 100% 30.20 in 10.0 mi Calm Calm - N/A   Clear
10:35 PM 51.8 °F 51.8 °F 100% 30.20 in 10.0 mi Calm Calm - N/A   Clear
10:55 PM 50.0 °F 50.0 °F 100% 30.20 in 10.0 mi Calm Calm - N/A   Clear
11:15 PM 51.8 °F 51.8 °F 100% 30.20 in 10.0 mi Calm Calm - N/A   Clear
11:35 PM 50.0 °F 50.0 °F 100% 30.20 in 10.0 mi NE 3.5 mph - N/A   Clear
11:55 PM 50.0 °F 50.0 °F 100% 30.19 in 10.0 mi NE 3.5 mph - N/A   Clear